Flag for Canada Weather past 2 weeks in Montreal, Quebec, Canada

Now
10 °F

Clear.


Feels Like: -7 °F
Forecast: 2 / 15 °F
Wind: 16 mph from Southwest

Location: Montreal - Pierre Elliot Trudeau International Aiport

Current Time: Feb 27, 2015 at 8:44:11 PM

Latest Report: Feb 27, 2015 at 8:00 PM


Visibility: 15 mi

Pressure: 30.48 "Hg

Humidity: 47%

Dew point: -6 °F

Location of MontrealLocation

Historic Weather in Montreal — Graph

°F

Montreal temperature yesterday

Maximum temperature yesterday: 9 °F (at 2:00 PM)
Minimum temperature yesterday: -4 °F (at 3:00 AM)
Average temperature yesterday: 3 °F

Past Weeks' High & Low Weather Summary

 TemperatureHumidityPressure
High25 °F (Feb 22, 1:00 PM)92% (Feb 22, 7:00 AM)30.46 "Hg (Feb 22, 7:00 AM)
Low-13 °F (Feb 24, 1:00 AM)41% (Feb 13, 5:00 PM)29.64 "Hg (Feb 25, 4:00 AM)
Average5 °F61%30.03 "Hg
* Reported Feb 12 7:00 PM — Feb 27 7:00 PM, Montreal, Weather by CustomWeather, © 2015

Note: Actual official high and low records may vary slightly from our data, if they occured in-between our weather recording intervals... More about our weather records

Advertising

Montreal weather history for previous 24 hours

 ConditionsComfort  
Time TempWeatherWind HumidityBarometerVisibility
7:00 PM
Fri, Feb 27
10 °FClear.15 mph47%30.46 "Hg15 mi
6:00 PM12 °FPassing clouds.12 mph44%30.44 "Hg30 mi
5:00 PM14 °FPassing clouds.16 mph41%30.43 "Hg30 mi
4:00 PM14 °FPassing clouds.21 mph41%30.42 "Hg30 mi
3:00 PM14 °FPassing clouds.20 mph41%30.40 "Hg30 mi
2:00 PM14 °FPassing clouds.18 mph44%30.39 "Hg30 mi
1:00 PM12 °FPassing clouds.13 mph48%30.40 "Hg30 mi
12:00 PM9 °FSunny.14 mph47%30.42 "Hg15 mi
11:00 AM5 °FSunny.13 mph55%30.42 "Hg15 mi
10:00 AM3 °FSunny.7 mph55%30.42 "Hg15 mi
9:00 AM0 °FSunny.6 mph60%30.40 "Hg15 mi
8:00 AM-4 °FSunny.6 mph65%30.39 "Hg15 mi
7:00 AM-6 °FPassing clouds.8 mph64%30.35 "Hg30 mi
6:00 AM-6 °FPassing clouds.7 mph64%30.32 "Hg15 mi
5:00 AM-8 °FPassing clouds.7 mph64%30.31 "Hg15 mi
4:00 AM-6 °FPassing clouds.7 mph64%30.28 "Hg15 mi
3:00 AM0 °FPassing clouds.3 mph54%30.26 "Hg15 mi
2:00 AM0 °FPassing clouds.6 mph54%30.25 "Hg15 mi
1:00 AM-2 °FPassing clouds.7 mph59%30.24 "Hg15 mi
12:00 AM1 °FPassing clouds.6 mph55%30.22 "Hg15 mi
11:00 PM
Thu, Feb 26
3 °FPassing clouds.7 mph50%30.22 "Hg15 mi
10:00 PM5 °FPassing clouds.8 mph51%30.21 "Hg15 mi
9:00 PM7 °FPassing clouds.9 mph51%30.19 "Hg15 mi
8:00 PM5 °FMostly cloudy.7 mph51%30.19 "Hg15 mi
Weather by CustomWeather, © 2015

See weather overviewHow to use our weather pages